Flag for Germany Weather past 2 weeks in Altenburg, Thuringia, Germany

Now
54 °F

Passing clouds.


Feels Like: 52 °F
Forecast: 45 / 56 °F
Wind: 7 mph from Southwest

Location: Altenburg Nobitz

Current Time: Oct 25, 2014 at 3:54:41 PM

Latest Report: Oct 25, 2014 at 3:20 PM


Visibility: N/A

Pressure: 30.12 "Hg

Humidity: 72%

Dew point: 45 °F

Location of AltenburgLocation

Historic Weather in Altenburg — Graph

°F

Altenburg temperature yesterday

Maximum temperature yesterday: 57 °F (at 1:20 PM)
Minimum temperature yesterday: 46 °F (at 8:20 AM)
Average temperature yesterday: 53 °F

Past Weeks' High & Low Weather Summary

 TemperatureHumidityPressure
High72 °F (Oct 19, 2:50 PM)100% (Oct 11, 9:50 AM)30.24 "Hg (Oct 11, 9:50 AM)
Low41 °F (Oct 22, 8:20 AM)59% (Oct 20, 12:20 PM)29.53 "Hg (Oct 21, 7:50 PM)
Average58 °F79%29.93 "Hg
* Reported Oct 10 2:20 PM — Oct 25 2:20 PM, Altenburg, Weather by CustomWeather, © 2014

Note: Actual official high and low records may vary slightly from our data, if they occured in-between our weather recording intervals... More about our weather records

Advertising

Altenburg weather history for previous 24 hours

 ConditionsComfort  
Time TempWeatherWind HumidityBarometerVisibility
2:20 PM
Oct 25
52 °FSunny.7 mph77%30.12 "Hg10 mi
1:50 PM52 °FSunny.7 mph77%30.12 "Hg10 mi
1:20 PM52 °FSunny.10 mph77%30.12 "Hg10 mi
12:50 PM54 °FSunny.8 mph72%30.12 "Hg10 mi
12:20 PM52 °FSunny.9 mph77%30.12 "Hg10 mi
11:50 AM52 °FSunny.8 mph77%30.15 "Hg10 mi
11:20 AM52 °FSunny.7 mph77%30.12 "Hg10 mi
10:50 AM50 °FPassing clouds.8 mph82%30.12 "HgN/A
10:20 AM48 °FSunny.8 mph82%30.12 "Hg10 mi
9:50 AM45 °FPassing clouds.7 mph87%30.12 "HgN/A
9:20 AM45 °FPassing clouds.7 mph81%30.12 "HgN/A
7:50 PM
Oct 24
46 °FClear.2 mph93%30.15 "Hg10 mi
7:20 PM48 °FClear.2 mph87%30.15 "Hg10 mi
6:50 PM48 °FSunny.3 mph94%30.15 "Hg10 mi
6:20 PM48 °FSunny.2 mph94%30.15 "Hg10 mi
5:50 PM52 °FSunny.1 mph82%30.15 "Hg10 mi
5:20 PM55 °FSunny.2 mph67%30.15 "Hg10 mi
4:50 PM55 °FSunny.2 mph67%30.15 "Hg10 mi
4:20 PM55 °FPassing clouds.3 mph67%30.18 "HgN/A
3:50 PM55 °FPassing clouds.5 mph67%30.18 "HgN/A
3:20 PM55 °FPassing clouds.5 mph67%30.18 "HgN/A
Weather by CustomWeather, © 2014

See weather overviewHow to use our weather pages